QPF
0.00 0.00 0.00 0.00 0.00 0.00 0.00 0.00 0.00 0.00 0.00 0.00 0.00 0.00 0.00 0.00 0.00 0.00 0.00 0.00 0.00 0.00 0.00 0.00 0.00 0.00 0.01 0.01 0.01 0.01 0.00 0.00 0.01 0.01 0.01 0.01 0.01 0.01 0.01 0.01 0.01 0.01 0.02 0.02 0.02 0.02 0.01 0.00 0.00
0.00 0.00 0.00 0.00 0.00 0.00 0.00 0.00 0.00 0.00 0.00 0.00 0.00 0.00 0.00 0.00 0.00 0.00 0.00 0.00 0.00 0.00 0.00 0.00 0.00 0.00 0.01 0.01 0.01 0.00 0.00 0.00 0.01 0.01 0.01 0.01 0.01 0.01 0.01 0.01 0.01 0.01 0.02 0.02 0.02 0.01 0.00 0.00 0.00
0.00 0.00 0.00 0.00 0.00 0.00 0.00 0.00 0.00 0.00 0.00 0.00 0.00 0.00 0.00 0.00 0.00 0.00 0.00 0.00 0.00 0.00 0.00 0.00 0.00 0.01 0.01 0.01 0.01 0.00 0.01 0.01 0.01 0.01 0.01 0.01 0.01 0.01 0.01 0.01 0.01 0.01 0.01 0.01 0.01 0.00 0.00 0.00 0.00
0.01 0.01 0.01 0.01 0.00 0.00 0.00 0.00 0.00 0.00 0.00 0.00 0.00 0.00 0.00 0.00 0.00 0.00 0.00 0.00 0.00 0.00 0.00 0.00 0.00 0.01 0.01 0.01 0.01 0.01 0.01 0.01 0.01 0.01 0.00 0.01 0.01 0.01 0.01 0.01 0.01 0.01 0.00 0.01 0.00 0.00 0.00 0.00 0.00
0.02 0.02 0.02 0.01 0.00 0.00 0.00 0.00 0.00 0.00 0.00 0.00 0.00 0.00 0.00 0.00 0.00 0.00 0.00 0.00 0.00 0.00 0.00 0.00 0.00 0.01 0.01 0.01 0.01 0.01 0.01 0.01 0.01 0.00 0.00 0.00 0.00 0.01 0.01 0.01 0.00 0.00 0.00 0.00 0.00 0.00 0.00 0.00 0.00
0.03 0.02 0.02 0.01 0.00 0.00 0.00 0.00 0.00 0.00 0.00 0.00 0.00 0.00 0.00 0.00 0.00 0.00 0.00 0.00 0.00 0.00 0.00 0.00 0.01 0.01 0.01 0.01 0.01 0.01 0.01 0.01 0.01 0.00 0.00 0.00 0.01 0.01 0.00 0.00 0.00 0.00 0.00 0.00 0.00 0.00 0.00 0.00 0.00
0.03 0.02 0.01 0.00 0.00 0.00 0.00 0.00 0.00 0.00 0.00 0.00 0.00 0.00 0.00 0.00 0.00 0.00 0.00 0.00 0.00 0.00 0.00 0.00 0.01 0.01 0.01 0.01 0.01 0.01 0.01 0.01 0.00 0.00 0.00 0.00 0.00 0.00 0.00 0.00 0.00 0.01 0.00 0.00 0.00 0.00 0.00 0.00 0.00
0.01 0.02 0.01 0.01 0.00 0.00 0.00 0.00 0.00 0.00 0.00 0.00 0.00 0.00 0.02 0.01 0.00 0.00 0.00 0.00 0.00 0.00 0.00 0.00 0.01 0.01 0.01 0.01 0.01 0.01 0.01 0.01 0.00 0.00 0.00 0.00 0.00 0.00 0.00 0.00 0.00 0.00 0.00 0.00 0.00 0.00 0.00 0.00 0.00
0.02 0.03 0.01 0.00 0.00 0.00 0.00 0.00 0.00 0.00 0.00 0.00 0.00 0.00 0.01 0.00 0.00 0.00 0.00 0.00 0.00 0.00 0.00 0.00 0.00 0.01 0.01 0.01 0.01 0.01 0.00 0.00 0.00 0.00 0.00 0.00 0.00 0.00 0.00 0.00 0.00 0.00 0.00 0.00 0.00 0.00 0.00 0.00 0.00
0.03 0.01 0.00 0.00 0.00 0.00 0.00 0.00 0.00 0.00 0.00 0.00 0.00 0.00 0.00 0.00 0.00 0.00 0.00 0.00 0.01 0.01 0.00 0.00 0.00 0.00 0.00 0.00 0.00 0.00 0.00 0.00 0.00 0.00 0.00 0.00 0.00 0.00 0.00 0.00 0.00 0.00 0.00 0.00 0.00 0.00 0.00 0.00 0.00
0.01 0.00 0.00 0.00 0.00 0.00 0.00 0.00 0.00 0.00 0.00 0.00 0.00 0.00 0.00 0.00 0.00 0.00 0.00 0.00 0.00 0.01 0.01 0.00 0.00 0.00 0.00 0.00 0.00 0.00 0.00 0.00 0.00 0.00 0.00 0.00 0.00 0.00 0.00 0.00 0.00 0.00 0.00 0.00 0.00 0.00 0.00 0.00 0.00
0.01 0.00 0.00 0.00 0.00 0.00 0.00 0.00 0.00 0.00 0.00 0.00 0.00 0.00 0.00 0.00 0.00 0.00 0.00 0.00 0.00 0.00 0.00 0.00 0.00 0.00 0.00 0.00 0.00 0.00 0.00 0.00 0.00 0.00 0.00 0.00 0.00 0.00 0.00 0.00 0.00 0.00 0.00 0.00 0.00 0.00 0.00 0.00 0.00
0.01 0.01 0.00 0.00 0.00 0.00 0.00 0.00 0.00 0.00 0.00 0.00 0.00 0.00 0.00 0.00 0.00 0.00 0.00 0.00 0.00 0.00 0.00 0.00 0.00 0.00 0.00 0.00 0.00 0.00 0.00 0.00 0.00 0.00 0.00 0.00 0.00 0.00 0.00 0.00 0.00 0.00 0.00 0.00 0.00 0.00 0.00 0.00 0.00
0.01 0.01 0.01 0.00 0.00 0.00 0.00 0.00 0.00 0.00 0.00 0.00 0.00 0.00 0.00 0.00 0.00 0.00 0.00 0.00 0.00 0.00 0.00 0.00 0.00 0.00 0.00 0.00 0.00 0.00 0.00 0.00 0.00 0.00 0.00 0.00 0.00 0.00 0.00 0.00 0.00 0.00 0.00 0.00 0.00 0.00 0.00 0.00 0.00
0.03 0.03 0.02 0.01 0.00 0.00 0.00 0.00 0.00 0.00 0.00 0.00 0.00 0.00 0.00 0.00 0.00 0.00 0.00 0.00 0.00 0.00 0.00 0.00 0.00 0.00 0.00 0.00 0.00 0.00 0.00 0.00 0.00 0.00 0.00 0.00 0.00 0.00 0.00 0.00 0.00 0.00 0.00 0.00 0.00 0.00 0.00 0.00 0.00
0.05 0.05 0.03 0.01 0.00 0.00 0.00 0.00 0.00 0.00 0.00 0.00 0.00 0.00 0.00 0.00 0.00 0.00 0.00 0.00 0.00 0.00 0.01 0.00 0.00 0.00 0.00 0.00 0.00 0.00 0.00 0.00 0.00 0.00 0.00 0.00 0.00 0.00 0.00 0.00 0.00 0.00 0.00 0.00 0.00 0.00 0.00 0.00 0.00
0.06 0.04 0.02 0.01 0.00 0.00 0.00 0.00 0.00 0.00 0.00 0.00 0.00 0.00 0.00 0.00 0.00 0.00 0.00 0.00 0.00 0.00 0.00 0.00 0.01 0.01 0.01 0.00 0.00 0.00 0.00 0.00 0.00 0.00 0.00 0.00 0.00 0.00 0.00 0.00 0.00 0.00 0.00 0.00 0.00 0.00 0.00 0.00 0.00
0.03 0.01 0.01 0.01 0.00 0.00 0.00 0.00 0.00 0.00 0.00 0.00 0.00 0.00 0.00 0.00 0.00 0.00 0.00 0.00 0.00 0.00 0.00 0.00 0.00 0.00 0.00 0.01 0.00 0.00 0.00 0.00 0.00 0.00 0.00 0.00 0.00 0.00 0.00 0.00 0.00 0.00 0.00 0.00 0.00 0.00 0.00 0.00 0.00
0.02 0.02 0.01 0.01 0.00 0.00 0.00 0.00 0.00 0.00 0.00 0.00 0.00 0.00 0.00 0.00 0.00 0.00 0.00 0.00 0.00 0.00 0.00 0.00 0.00 0.00 0.00 0.00 0.00 0.00 0.00 0.00 0.00 0.00 0.00 0.00 0.00 0.00 0.00 0.00 0.00 0.00 0.00 0.00 0.00 0.00 0.00 0.00 0.00
0.03 0.03 0.02 0.01 0.01 0.00 0.00 0.00 0.00 0.00 0.00 0.00 0.00 0.00 0.00 0.00 0.00 0.00 0.00 0.00 0.00 0.00 0.01 0.01 0.01 0.01 0.01 0.01 0.00 0.00 0.00 0.00 0.00 0.00 0.00 0.00 0.00 0.00 0.00 0.00 0.00 0.00 0.00 0.00 0.00 0.00 0.00 0.00 0.00
0.04 0.03 0.02 0.02 0.01 0.00 0.00 0.00 0.00 0.00 0.00 0.00 0.00 0.00 0.00 0.00 0.00 0.00 0.00 0.00 0.00 0.00 0.00 0.01 0.01 0.01 0.01 0.01 0.01 0.01 0.01 0.01 0.00 0.00 0.00 0.00 0.00 0.01 0.00 0.01 0.01 0.01 0.01 0.01 0.01 0.01 0.01 0.01 0.01
0.05 0.02 0.02 0.03 0.03 0.01 0.00 0.00 0.00 0.00 0.00 0.00 0.00 0.00 0.00 0.00 0.00 0.00 0.00 0.00 0.00 0.00 0.00 0.00 0.00 0.01 0.01 0.01 0.00 0.00 0.00 0.00 0.00 0.00 0.00 0.00 0.00 0.00 0.00 0.01 0.01 0.01 0.01 0.01 0.02 0.02 0.01 0.01 0.01
0.05 0.03 0.02 0.03 0.04 0.03 0.01 0.00 0.00 0.00 0.00 0.00 0.00 0.00 0.00 0.00 0.00 0.00 0.00 0.00 0.00 0.00 0.00 0.00 0.00 0.00 0.01 0.01 0.00 0.00 0.00 0.00 0.00 0.00 0.00 0.00 0.00 0.01 0.01 0.01 0.01 0.01 0.01 0.02 0.02 0.03 0.03 0.03 0.03
0.06 0.05 0.05 0.05 0.05 0.04 0.01 0.00 0.00 0.00 0.00 0.00 0.00 0.00 0.00 0.00 0.00 0.00 0.00 0.00 0.00 0.00 0.00 0.00 0.00 0.00 0.00 0.01 0.00 0.00 0.00 0.00 0.00 0.00 0.00 0.00 0.00 0.01 0.01 0.01 0.01 0.01 0.02 0.02 0.03 0.04 0.05 0.05 0.05
0.09 0.09 0.10 0.09 0.06 0.02 0.00 0.00 0.00 0.00 0.00 0.00 0.00 0.00 0.00 0.00 0.00 0.00 0.00 0.00 0.00 0.00 0.00 0.00 0.00 0.00 0.00 0.00 0.00 0.00 0.00 0.00 0.00 0.00 0.00 0.00 0.00 0.00 0.01 0.02 0.02 0.02 0.02 0.03 0.03 0.04 0.05 0.06 0.07
0.08 0.07 0.07 0.06 0.04 0.01 0.00 0.00 0.00 0.00 0.00 0.00 0.00 0.00 0.00 0.00 0.00 0.00 0.00 0.00 0.00 0.00 0.00 0.00 0.00 0.00 0.00 0.00 0.00 0.00 0.00 0.00 0.00 0.00 0.00 0.00 0.00 0.00 0.01 0.01 0.01 0.02 0.02 0.03 0.03 0.04 0.05 0.06 0.08
0.06 0.05 0.03 0.03 0.03 0.01 0.00 0.00 0.00 0.00 0.00 0.00 0.00 0.00 0.00 0.00 0.00 0.00 0.00 0.00 0.00 0.00 0.00 0.00 0.00 0.00 0.00 0.00 0.00 0.00 0.00 0.00 0.00 0.00 0.00 0.00 0.00 0.00 0.00 0.01 0.01 0.01 0.02 0.02 0.03 0.04 0.04 0.05 0.07
0.05 0.03 0.03 0.02 0.02 0.02 0.01 0.00 0.00 0.00 0.00 0.00 0.00 0.00 0.00 0.00 0.00 0.00 0.00 0.00 0.00 0.00 0.00 0.00 0.00 0.00 0.00 0.00 0.00 0.00 0.00 0.00 0.00 0.00 0.00 0.00 0.00 0.00 0.00 0.00 0.00 0.01 0.01 0.02 0.03 0.03 0.04 0.05 0.06
0.03 0.03 0.02 0.02 0.01 0.01 0.01 0.00 0.00 0.00 0.00 0.00 0.00 0.00 0.00 0.00 0.00 0.00 0.00 0.00 0.00 0.00 0.00 0.00 0.00 0.00 0.00 0.00 0.00 0.00 0.00 0.00 0.00 0.00 0.00 0.00 0.00 0.00 0.00 0.00 0.00 0.00 0.01 0.01 0.02 0.03 0.03 0.05 0.06
0.02 0.02 0.01 0.02 0.01 0.00 0.00 0.00 0.00 0.00 0.00 0.00 0.00 0.00 0.00 0.00 0.00 0.00 0.00 0.00 0.00 0.00 0.00 0.00 0.00 0.00 0.00 0.00 0.00 0.00 0.00 0.00 0.00 0.00 0.00 0.00 0.00 0.00 0.00 0.00 0.00 0.00 0.01 0.01 0.01 0.02 0.03 0.04 0.06
MSLP
1012.67 1013.15 1013.63 1014.00 1014.17 1014.09 1013.74 1013.18 1012.50 1011.79 1011.17 1010.69 1010.38 1010.23 1010.19 1010.22 1010.25 1010.28 1010.29 1010.32 1010.40 1010.57 1010.87 1011.29 1011.80 1012.37 1012.93 1013.45 1013.90 1014.28 1014.58 1014.85 1015.11 1015.39 1015.70 1016.02 1016.35 1016.67 1016.95 1017.19 1017.40 1017.58 1017.75 1017.93 1018.12 1018.30 1018.49 1018.64 1018.76
1013.02 1013.55 1014.02 1014.32 1014.35 1014.08 1013.55 1012.82 1012.01 1011.23 1010.58 1010.12 1009.86 1009.76 1009.77 1009.82 1009.87 1009.89 1009.90 1009.94 1010.05 1010.29 1010.67 1011.18 1011.80 1012.46 1013.11 1013.69 1014.17 1014.55 1014.86 1015.12 1015.37 1015.64 1015.93 1016.24 1016.54 1016.82 1017.07 1017.28 1017.47 1017.65 1017.83 1018.04 1018.28 1018.52 1018.75 1018.94 1019.07
1013.42 1013.96 1014.38 1014.56 1014.43 1013.99 1013.30 1012.43 1011.53 1010.72 1010.09 1009.67 1009.47 1009.43 1009.48 1009.55 1009.59 1009.59 1009.59 1009.62 1009.76 1010.05 1010.50 1011.11 1011.82 1012.58 1013.30 1013.93 1014.45 1014.86 1015.17 1015.43 1015.67 1015.93 1016.20 1016.48 1016.75 1016.99 1017.20 1017.37 1017.54 1017.71 1017.91 1018.15 1018.43 1018.72 1018.99 1019.21 1019.35
1013.78 1014.30 1014.62 1014.67 1014.38 1013.79 1012.96 1012.02 1011.09 1010.29 1009.71 1009.38 1009.25 1009.27 1009.36 1009.44 1009.47 1009.45 1009.42 1009.45 1009.60 1009.92 1010.43 1011.10 1011.89 1012.71 1013.49 1014.17 1014.72 1015.14 1015.47 1015.73 1015.97 1016.22 1016.47 1016.73 1016.97 1017.18 1017.35 1017.50 1017.65 1017.82 1018.04 1018.30 1018.61 1018.93 1019.23 1019.47 1019.63
1014.00 1014.44 1014.65 1014.56 1014.14 1013.43 1012.53 1011.56 1010.66 1009.94 1009.46 1009.22 1009.19 1009.28 1009.41 1009.50 1009.53 1009.49 1009.44 1009.46 1009.60 1009.94 1010.48 1011.19 1012.01 1012.87 1013.67 1014.37 1014.94 1015.38 1015.71 1015.98 1016.22 1016.47 1016.72 1016.97 1017.20 1017.39 1017.55 1017.69 1017.84 1018.02 1018.24 1018.53 1018.85 1019.19 1019.50 1019.74 1019.90
1014.00 1014.34 1014.42 1014.20 1013.67 1012.90 1011.99 1011.06 1010.24 1009.63 1009.28 1009.17 1009.24 1009.42 1009.59 1009.71 1009.74 1009.69 1009.63 1009.64 1009.79 1010.12 1010.66 1011.37 1012.19 1013.04 1013.83 1014.52 1015.08 1015.52 1015.86 1016.14 1016.40 1016.66 1016.92 1017.18 1017.42 1017.62 1017.79 1017.94 1018.10 1018.30 1018.54 1018.83 1019.16 1019.49 1019.79 1020.01 1020.15
1013.74 1013.95 1013.91 1013.59 1013.00 1012.22 1011.35 1010.51 1009.82 1009.36 1009.15 1009.17 1009.34 1009.59 1009.83 1009.98 1010.03 1010.00 1009.95 1009.97 1010.11 1010.44 1010.96 1011.63 1012.41 1013.21 1013.95 1014.60 1015.14 1015.56 1015.89 1016.19 1016.47 1016.76 1017.05 1017.34 1017.61 1017.84 1018.04 1018.23 1018.41 1018.62 1018.88 1019.17 1019.49 1019.80 1020.06 1020.25 1020.36
1013.25 1013.34 1013.20 1012.82 1012.23 1011.49 1010.71 1009.99 1009.44 1009.12 1009.05 1009.18 1009.44 1009.76 1010.04 1010.24 1010.33 1010.34 1010.33 1010.37 1010.53 1010.85 1011.33 1011.95 1012.65 1013.36 1014.03 1014.61 1015.10 1015.49 1015.83 1016.14 1016.44 1016.77 1017.10 1017.43 1017.74 1018.02 1018.26 1018.49 1018.70 1018.94 1019.20 1019.49 1019.78 1020.05 1020.27 1020.42 1020.49
1012.64 1012.63 1012.43 1012.03 1011.47 1010.81 1010.15 1009.57 1009.16 1008.97 1008.99 1009.19 1009.51 1009.86 1010.18 1010.42 1010.57 1010.64 1010.70 1010.79 1010.97 1011.29 1011.73 1012.27 1012.88 1013.49 1014.06 1014.56 1014.99 1015.35 1015.68 1016.00 1016.34 1016.70 1017.07 1017.45 1017.80 1018.12 1018.41 1018.66 1018.91 1019.17 1019.43 1019.71 1019.97 1020.21 1020.38 1020.48 1020.52
1012.03 1011.96 1011.74 1011.36 1010.87 1010.33 1009.79 1009.35 1009.05 1008.94 1009.01 1009.23 1009.55 1009.90 1010.24 1010.51 1010.72 1010.86 1011.00 1011.16 1011.38 1011.69 1012.10 1012.57 1013.07 1013.58 1014.04 1014.46 1014.82 1015.15 1015.47 1015.81 1016.18 1016.57 1016.97 1017.38 1017.76 1018.11 1018.43 1018.71 1018.98 1019.25 1019.51 1019.78 1020.02 1020.22 1020.36 1020.43 1020.43
1011.54 1011.44 1011.24 1010.93 1010.54 1010.12 1009.72 1009.38 1009.16 1009.08 1009.14 1009.32 1009.59 1009.90 1010.22 1010.50 1010.76 1010.98 1011.20 1011.43 1011.70 1012.02 1012.40 1012.80 1013.21 1013.61 1013.98 1014.32 1014.63 1014.93 1015.25 1015.59 1015.98 1016.38 1016.81 1017.23 1017.62 1017.99 1018.31 1018.61 1018.89 1019.16 1019.42 1019.68 1019.90 1020.08 1020.20 1020.26 1020.27
1011.24 1011.15 1011.00 1010.78 1010.52 1010.23 1009.94 1009.69 1009.50 1009.40 1009.40 1009.49 1009.65 1009.88 1010.14 1010.42 1010.71 1010.99 1011.28 1011.59 1011.91 1012.24 1012.59 1012.94 1013.27 1013.58 1013.87 1014.15 1014.42 1014.70 1015.02 1015.37 1015.76 1016.17 1016.60 1017.01 1017.40 1017.75 1018.07 1018.36 1018.64 1018.91 1019.17 1019.42 1019.65 1019.83 1019.96 1020.03 1020.05
1011.12 1011.07 1011.00 1010.90 1010.77 1010.60 1010.42 1010.22 1010.04 1009.88 1009.77 1009.73 1009.76 1009.87 1010.06 1010.30 1010.59 1010.91 1011.26 1011.62 1011.98 1012.33 1012.66 1012.96 1013.23 1013.48 1013.72 1013.95 1014.20 1014.48 1014.80 1015.15 1015.54 1015.94 1016.35 1016.74 1017.10 1017.42 1017.72 1018.00 1018.26 1018.54 1018.81 1019.07 1019.31 1019.51 1019.67 1019.78 1019.84
1011.12 1011.13 1011.14 1011.16 1011.16 1011.12 1011.03 1010.87 1010.67 1010.44 1010.21 1010.03 1009.91 1009.89 1009.97 1010.16 1010.43 1010.77 1011.14 1011.53 1011.91 1012.26 1012.58 1012.85 1013.09 1013.31 1013.52 1013.74 1013.98 1014.27 1014.59 1014.94 1015.32 1015.70 1016.08 1016.42 1016.74 1017.04 1017.31 1017.57 1017.83 1018.11 1018.39 1018.67 1018.95 1019.19 1019.40 1019.56 1019.69
1011.12 1011.19 1011.30 1011.44 1011.56 1011.63 1011.61 1011.49 1011.27 1010.97 1010.63 1010.32 1010.07 1009.92 1009.90 1010.02 1010.26 1010.58 1010.96 1011.35 1011.73 1012.08 1012.38 1012.63 1012.86 1013.06 1013.27 1013.50 1013.76 1014.06 1014.39 1014.74 1015.10 1015.45 1015.78 1016.09 1016.37 1016.63 1016.88 1017.13 1017.40 1017.68 1017.99 1018.30 1018.62 1018.91 1019.18 1019.40 1019.60
1011.04 1011.16 1011.36 1011.59 1011.82 1011.99 1012.04 1011.95 1011.72 1011.37 1010.96 1010.55 1010.19 1009.95 1009.85 1009.90 1010.09 1010.39 1010.74 1011.12 1011.48 1011.80 1012.08 1012.33 1012.55 1012.77 1013.00 1013.26 1013.54 1013.86 1014.20 1014.54 1014.87 1015.18 1015.47 1015.74 1015.98 1016.21 1016.45 1016.71 1016.99 1017.30 1017.63 1017.98 1018.34 1018.69 1019.01 1019.30 1019.55
1010.81 1010.98 1011.25 1011.57 1011.88 1012.12 1012.23 1012.17 1011.94 1011.58 1011.13 1010.67 1010.26 1009.97 1009.82 1009.82 1009.97 1010.22 1010.54 1010.88 1011.20 1011.50 1011.76 1012.00 1012.23 1012.47 1012.74 1013.02 1013.34 1013.68 1014.01 1014.33 1014.63 1014.90 1015.15 1015.37 1015.58 1015.80 1016.04 1016.31 1016.62 1016.95 1017.32 1017.71 1018.10 1018.49 1018.86 1019.20 1019.50
1010.48 1010.68 1010.99 1011.37 1011.74 1012.02 1012.17 1012.14 1011.93 1011.57 1011.13 1010.67 1010.26 1009.96 1009.81 1009.80 1009.92 1010.14 1010.41 1010.70 1010.98 1011.24 1011.47 1011.71 1011.95 1012.21 1012.51 1012.83 1013.17 1013.51 1013.84 1014.13 1014.38 1014.60 1014.80 1014.98 1015.17 1015.38 1015.63 1015.92 1016.25 1016.62 1017.02 1017.43 1017.85 1018.26 1018.66 1019.04 1019.38
1010.12 1010.35 1010.69 1011.08 1011.47 1011.76 1011.92 1011.90 1011.71 1011.38 1010.98 1010.57 1010.21 1009.96 1009.84 1009.85 1009.98 1010.18 1010.41 1010.65 1010.87 1011.09 1011.30 1011.51 1011.76 1012.04 1012.36 1012.70 1013.05 1013.38 1013.68 1013.93 1014.13 1014.29 1014.43 1014.57 1014.74 1014.94 1015.20 1015.51 1015.86 1016.26 1016.67 1017.09 1017.52 1017.94 1018.35 1018.74 1019.10
1009.86 1010.10 1010.44 1010.83 1011.19 1011.46 1011.59 1011.56 1011.38 1011.08 1010.74 1010.40 1010.14 1009.98 1009.93 1010.00 1010.16 1010.35 1010.57 1010.76 1010.94 1011.11 1011.28 1011.47 1011.71 1011.99 1012.32 1012.66 1013.00 1013.30 1013.55 1013.74 1013.87 1013.97 1014.04 1014.14 1014.28 1014.47 1014.73 1015.04 1015.41 1015.81 1016.22 1016.65 1017.06 1017.47 1017.87 1018.26 1018.63
1009.82 1010.06 1010.38 1010.72 1011.01 1011.21 1011.28 1011.21 1011.01 1010.74 1010.46 1010.22 1010.06 1010.02 1010.09 1010.25 1010.46 1010.69 1010.89 1011.06 1011.20 1011.32 1011.45 1011.61 1011.82 1012.08 1012.39 1012.70 1013.01 1013.26 1013.46 1013.57 1013.63 1013.64 1013.66 1013.70 1013.79 1013.96 1014.20 1014.51 1014.87 1015.26 1015.65 1016.05 1016.44 1016.82 1017.20 1017.58 1017.95
1010.02 1010.26 1010.54 1010.81 1011.01 1011.11 1011.08 1010.93 1010.70 1010.43 1010.20 1010.06 1010.02 1010.11 1010.30 1010.57 1010.86 1011.13 1011.35 1011.52 1011.62 1011.70 1011.78 1011.90 1012.07 1012.29 1012.55 1012.83 1013.08 1013.27 1013.39 1013.43 1013.40 1013.34 1013.28 1013.26 1013.31 1013.43 1013.64 1013.92 1014.25 1014.60 1014.97 1015.32 1015.67 1016.02 1016.37 1016.74 1017.12
1010.44 1010.68 1010.91 1011.10 1011.18 1011.15 1011.00 1010.75 1010.46 1010.19 1009.99 1009.92 1010.00 1010.21 1010.53 1010.91 1011.30 1011.63 1011.89 1012.05 1012.15 1012.19 1012.23 1012.30 1012.42 1012.58 1012.79 1013.00 1013.18 1013.31 1013.35 1013.32 1013.22 1013.08 1012.95 1012.87 1012.86 1012.93 1013.08 1013.31 1013.59 1013.90 1014.21 1014.52 1014.83 1015.14 1015.47 1015.83 1016.22
1010.96 1011.19 1011.38 1011.48 1011.45 1011.29 1011.01 1010.66 1010.30 1010.01 1009.83 1009.82 1009.98 1010.30 1010.74 1011.23 1011.70 1012.10 1012.40 1012.59 1012.68 1012.71 1012.72 1012.74 1012.80 1012.91 1013.05 1013.20 1013.31 1013.37 1013.35 1013.25 1013.08 1012.89 1012.70 1012.55 1012.48 1012.49 1012.58 1012.75 1012.97 1013.22 1013.48 1013.74 1014.01 1014.30 1014.62 1014.98 1015.38
1011.43 1011.67 1011.82 1011.85 1011.72 1011.45 1011.07 1010.63 1010.20 1009.87 1009.70 1009.73 1009.95 1010.35 1010.87 1011.45 1012.00 1012.47 1012.82 1013.04 1013.15 1013.17 1013.16 1013.15 1013.17 1013.23 1013.31 1013.40 1013.45 1013.45 1013.38 1013.23 1013.02 1012.79 1012.55 1012.36 1012.23 1012.18 1012.21 1012.31 1012.46 1012.65 1012.86 1013.08 1013.33 1013.61 1013.93 1014.30 1014.73
1011.72 1011.97 1012.10 1012.08 1011.90 1011.55 1011.10 1010.60 1010.13 1009.78 1009.60 1009.64 1009.90 1010.34 1010.92 1011.55 1012.16 1012.68 1013.08 1013.34 1013.48 1013.52 1013.52 1013.50 1013.49 1013.51 1013.55 1013.59 1013.61 1013.57 1013.47 1013.29 1013.06 1012.80 1012.54 1012.32 1012.14 1012.04 1012.01 1012.05 1012.14 1012.27 1012.45 1012.65 1012.90 1013.18 1013.52 1013.92 1014.37
1011.73 1012.00 1012.14 1012.11 1011.90 1011.54 1011.06 1010.54 1010.06 1009.70 1009.52 1009.56 1009.82 1010.28 1010.86 1011.51 1012.15 1012.71 1013.16 1013.47 1013.65 1013.74 1013.76 1013.76 1013.76 1013.77 1013.79 1013.81 1013.80 1013.74 1013.63 1013.45 1013.22 1012.96 1012.70 1012.45 1012.25 1012.11 1012.03 1012.02 1012.06 1012.17 1012.32 1012.52 1012.77 1013.08 1013.46 1013.89 1014.37
1011.46 1011.76 1011.92 1011.91 1011.73 1011.39 1010.94 1010.45 1009.99 1009.64 1009.46 1009.50 1009.74 1010.17 1010.74 1011.38 1012.02 1012.60 1013.08 1013.44 1013.68 1013.83 1013.91 1013.96 1013.99 1014.02 1014.05 1014.07 1014.06 1014.00 1013.89 1013.73 1013.52 1013.27 1013.02 1012.78 1012.57 1012.40 1012.30 1012.25 1012.27 1012.35 1012.50 1012.71 1012.99 1013.34 1013.76 1014.23 1014.74
1010.98 1011.30 1011.50 1011.54 1011.42 1011.14 1010.76 1010.33 1009.93 1009.61 1009.45 1009.46 1009.68 1010.06 1010.58 1011.18 1011.80 1012.38 1012.89 1013.31 1013.62 1013.85 1014.01 1014.13 1014.22 1014.30 1014.36 1014.40 1014.40 1014.36 1014.28 1014.14 1013.95 1013.74 1013.51 1013.28 1013.08 1012.92 1012.81 1012.75 1012.76 1012.84 1013.00 1013.23 1013.55 1013.94 1014.39 1014.90 1015.44
1010.41 1010.75 1010.98 1011.07 1011.02 1010.84 1010.55 1010.21 1009.87 1009.61 1009.46 1009.47 1009.65 1009.98 1010.44 1010.99 1011.57 1012.14 1012.67 1013.14 1013.53 1013.85 1014.11 1014.32 1014.49 1014.63 1014.74 1014.82 1014.85 1014.84 1014.77 1014.66 1014.51 1014.33 1014.14 1013.95 1013.77 1013.63 1013.52 1013.48 1013.49 1013.58 1013.76 1014.02 1014.36 1014.78 1015.27 1015.80 1016.35
Thickness
5676 5683 5691 5689 5676 5673 5682 5708 5729 5736 5743 5754 5759 5761 5758 5760 5752 5741 5769 5787 5784 5777 5771 5767 5765 5762 5759 5757 5754 5752 5749 5747 5745 5744 5742 5741 5739 5737 5736 5734 5733 5731 5730 5728 5726 5724 5722 5720 5718
5669 5678 5678 5672 5660 5660 5683 5710 5721 5734 5741 5750 5754 5754 5754 5759 5765 5765 5774 5782 5780 5774 5768 5765 5762 5759 5756 5753 5750 5748 5746 5743 5742 5740 5738 5737 5735 5734 5732 5731 5729 5728 5726 5723 5721 5719 5717 5715 5713
5661 5668 5660 5656 5655 5664 5687 5716 5725 5737 5742 5743 5744 5752 5753 5754 5766 5769 5774 5779 5776 5770 5765 5761 5758 5755 5752 5749 5747 5744 5742 5740 5738 5736 5734 5733 5732 5730 5729 5727 5725 5723 5721 5718 5716 5714 5712 5710 5708
5650 5649 5649 5646 5653 5676 5695 5713 5726 5728 5733 5739 5740 5743 5753 5759 5767 5770 5773 5774 5770 5766 5762 5756 5754 5751 5748 5746 5743 5741 5738 5736 5734 5732 5731 5729 5728 5727 5725 5723 5721 5718 5716 5714 5711 5709 5707 5705 5703
5640 5634 5628 5635 5653 5679 5700 5713 5719 5718 5723 5732 5735 5735 5738 5755 5765 5766 5767 5768 5765 5762 5756 5751 5749 5747 5744 5742 5739 5737 5735 5732 5730 5728 5727 5726 5724 5722 5720 5718 5716 5714 5711 5709 5707 5704 5702 5700 5698
5623 5626 5621 5628 5649 5675 5696 5710 5712 5712 5718 5727 5730 5729 5730 5750 5755 5758 5762 5762 5762 5757 5751 5746 5744 5742 5740 5738 5735 5733 5731 5729 5727 5725 5723 5722 5720 5718 5716 5714 5711 5709 5707 5704 5702 5700 5698 5696 5694
5615 5619 5623 5635 5647 5665 5688 5705 5704 5705 5710 5721 5730 5724 5725 5739 5748 5753 5755 5757 5756 5752 5746 5741 5739 5737 5735 5733 5731 5729 5727 5725 5723 5721 5719 5717 5715 5713 5711 5709 5707 5705 5702 5700 5698 5696 5694 5692 5690
5619 5617 5620 5632 5644 5662 5687 5697 5703 5703 5706 5724 5728 5717 5714 5729 5742 5746 5747 5749 5748 5745 5741 5738 5735 5733 5731 5729 5727 5726 5723 5721 5719 5717 5715 5713 5711 5709 5707 5705 5703 5701 5699 5696 5694 5692 5690 5688 5686
5612 5603 5613 5632 5644 5662 5683 5685 5694 5704 5704 5711 5719 5718 5716 5727 5734 5734 5735 5737 5738 5738 5737 5735 5733 5730 5728 5726 5723 5721 5719 5717 5715 5712 5710 5709 5707 5705 5703 5701 5699 5697 5695 5693 5691 5688 5686 5684 5683
5598 5598 5622 5645 5654 5660 5670 5674 5681 5685 5686 5693 5704 5713 5717 5720 5722 5721 5721 5723 5726 5728 5731 5732 5730 5728 5726 5724 5720 5717 5715 5713 5711 5709 5707 5706 5705 5703 5701 5698 5696 5693 5691 5689 5687 5685 5683 5681 5680
5598 5608 5628 5639 5646 5650 5657 5663 5673 5673 5673 5685 5693 5703 5711 5713 5714 5714 5715 5717 5720 5723 5725 5727 5727 5726 5724 5721 5717 5715 5713 5711 5709 5707 5705 5704 5704 5701 5698 5695 5692 5690 5688 5686 5684 5682 5681 5679 5678
5599 5612 5620 5627 5633 5638 5644 5654 5660 5666 5674 5688 5695 5702 5705 5706 5708 5710 5711 5713 5715 5717 5719 5722 5723 5722 5721 5719 5716 5714 5712 5709 5708 5706 5704 5703 5702 5699 5696 5693 5690 5687 5686 5684 5682 5680 5679 5678 5677
5591 5603 5612 5618 5621 5628 5636 5643 5650 5660 5672 5679 5686 5692 5698 5702 5706 5709 5712 5713 5713 5713 5714 5716 5718 5717 5717 5716 5714 5712 5710 5708 5707 5706 5703 5702 5700 5697 5694 5692 5689 5686 5684 5682 5680 5678 5677 5676 5675
5589 5595 5600 5606 5611 5619 5623 5631 5640 5652 5665 5670 5676 5682 5690 5696 5701 5704 5706 5707 5709 5710 5711 5712 5712 5712 5712 5711 5710 5709 5708 5706 5705 5703 5701 5700 5697 5694 5692 5690 5688 5685 5683 5681 5678 5676 5675 5673 5671
5583 5581 5585 5594 5602 5609 5613 5614 5630 5647 5654 5659 5666 5674 5681 5689 5696 5698 5702 5704 5706 5707 5708 5708 5707 5708 5707 5707 5706 5705 5704 5703 5702 5700 5698 5696 5694 5692 5689 5687 5685 5683 5680 5678 5676 5673 5671 5669 5667
5568 5566 5567 5585 5595 5602 5598 5601 5628 5639 5643 5649 5658 5666 5673 5681 5689 5695 5699 5701 5703 5704 5704 5704 5705 5704 5703 5702 5702 5701 5700 5700 5698 5697 5695 5693 5690 5688 5686 5684 5682 5680 5677 5675 5672 5669 5665 5663 5661
5552 5556 5565 5579 5592 5597 5594 5601 5622 5636 5639 5642 5650 5658 5666 5674 5682 5689 5695 5698 5700 5700 5700 5700 5700 5699 5698 5698 5697 5697 5696 5696 5695 5693 5692 5689 5687 5685 5683 5681 5678 5676 5674 5671 5668 5664 5661 5657 5654
5553 5561 5567 5575 5589 5592 5591 5600 5615 5630 5635 5639 5646 5653 5661 5668 5676 5684 5689 5692 5694 5696 5697 5697 5697 5696 5695 5694 5693 5692 5691 5691 5690 5689 5688 5686 5684 5682 5680 5677 5675 5672 5669 5666 5663 5659 5656 5652 5649
5563 5563 5567 5576 5589 5587 5588 5595 5607 5619 5626 5631 5638 5646 5654 5663 5672 5678 5682 5686 5688 5689 5690 5691 5691 5691 5691 5689 5687 5685 5684 5685 5685 5685 5684 5683 5681 5679 5676 5674 5671 5668 5665 5662 5659 5654 5650 5646 5643
5556 5560 5566 5575 5583 5584 5584 5591 5605 5615 5622 5628 5634 5641 5650 5657 5664 5669 5674 5677 5680 5681 5683 5685 5685 5686 5686 5685 5684 5683 5681 5681 5681 5680 5680 5678 5676 5675 5672 5670 5667 5664 5661 5657 5654 5650 5644 5641 5637
5549 5556 5564 5568 5573 5577 5577 5581 5597 5612 5621 5627 5633 5638 5645 5651 5655 5660 5664 5668 5670 5672 5674 5677 5678 5680 5681 5680 5679 5677 5676 5675 5675 5675 5674 5673 5671 5669 5668 5666 5663 5660 5657 5653 5650 5646 5640 5634 5631
5543 5558 5564 5565 5559 5559 5566 5564 5595 5607 5611 5619 5626 5631 5636 5643 5648 5652 5656 5658 5661 5663 5666 5668 5671 5673 5673 5674 5672 5670 5668 5667 5669 5669 5669 5669 5667 5665 5663 5661 5658 5655 5652 5649 5646 5642 5637 5631 5624
5543 5555 5558 5558 5556 5555 5563 5562 5588 5608 5606 5614 5620 5625 5630 5635 5640 5642 5646 5648 5651 5654 5656 5658 5661 5664 5665 5666 5666 5664 5663 5664 5664 5663 5663 5663 5662 5661 5658 5656 5653 5651 5648 5644 5640 5636 5632 5628 5622
5540 5544 5544 5545 5543 5540 5560 5562 5580 5598 5608 5612 5615 5619 5624 5627 5630 5633 5635 5638 5640 5643 5645 5648 5651 5653 5655 5656 5657 5657 5656 5656 5655 5655 5655 5655 5655 5654 5653 5650 5648 5645 5642 5639 5635 5631 5626 5622 5617
5532 5529 5526 5526 5528 5539 5567 5568 5581 5602 5611 5611 5609 5611 5615 5618 5620 5623 5625 5628 5630 5633 5635 5638 5640 5642 5644 5646 5647 5648 5649 5649 5648 5647 5647 5647 5647 5646 5645 5643 5641 5638 5635 5632 5628 5623 5619 5614 5609
5527 5531 5531 5532 5533 5549 5566 5566 5581 5597 5603 5604 5604 5604 5606 5609 5612 5615 5617 5619 5621 5623 5625 5627 5629 5631 5634 5635 5637 5638 5640 5640 5640 5640 5639 5639 5638 5638 5637 5635 5632 5630 5627 5623 5619 5614 5610 5605 5599
5524 5527 5537 5535 5542 5544 5553 5570 5570 5586 5587 5590 5592 5594 5597 5600 5604 5606 5607 5609 5611 5612 5614 5616 5619 5621 5623 5624 5626 5627 5629 5630 5630 5630 5630 5630 5629 5629 5627 5625 5622 5619 5616 5612 5608 5603 5598 5592 5586
5526 5532 5528 5528 5535 5543 5558 5565 5565 5569 5574 5580 5583 5586 5590 5594 5595 5596 5597 5598 5600 5602 5604 5606 5608 5610 5611 5613 5615 5616 5617 5618 5619 5620 5619 5619 5619 5618 5616 5614 5611 5608 5604 5600 5595 5590 5584 5577 5570
5519 5524 5529 5533 5539 5539 5547 5557 5576 5574 5574 5575 5577 5581 5583 5585 5586 5587 5587 5588 5590 5591 5593 5594 5596 5598 5599 5601 5603 5604 5605 5606 5607 5608 5608 5607 5607 5605 5604 5601 5599 5595 5591 5586 5580 5574 5568 5561 5553
5525 5527 5529 5527 5533 5541 5539 5547 5571 5573 5573 5572 5572 5575 5577 5578 5578 5578 5578 5579 5580 5580 5582 5583 5585 5586 5588 5590 5591 5592 5592 5593 5594 5594 5594 5594 5593 5591 5589 5587 5584 5580 5575 5570 5564 5558 5551 5544 5536